This demonstration page uses our WeatherBlox Daily Observations layout. Learn more.

Left ArrowRight Arrow

Hourly Observations for December 4, 2020

Temp ( °F °C ) Dew Point ( °F °C ) Humidity (%) Winds ( mph kmh ) Pressure ( in mb ) Visibility ( mi km ) Precip ( " mm )
12:53 am 00:53 Cloudy 37 2.8 32 0 82 82 Calm 30.14 1021 10 16 0.00 0.00
1:53 am 01:53 Cloudy 36 2.2 31 -0.6 82 82 Calm 30.10 1019 10 16 0.00 0.00
2:53 am 02:53 Partly Cloudy 30 -1.1 28 -2.2 92 92 Calm 30.10 1019 10 16 0.00 0.00
3:53 am 03:53 Mostly Clear 28 -2.2 26 -3.3 92 92 Calm 30.08 1019 10 16 0.00 0.00
4:53 am 04:53 Mostly Clear 25 -3.9 23 -5 92 92 Calm 30.08 1019 10 16 0.00 0.00
5:53 am 05:53 Cloudy 30 -1.1 27 -2.8 88 88 Calm 30.06 1018 10 16 0.00 0.00
6:53 am 06:53 Mostly Clear 27 -2.8 26 -3.3 96 96 Calm 30.07 1018 10 16 0.00 0.00
7:53 am 07:53 Sunny 28 -2.2 26 -3.3 92 92 W 3 6 30.07 1018 10 16 0.00 0.00
8:53 am 08:53 Cloudy 31 -0.6 29 -1.7 92 92 Calm 30.07 1018 10 16 0.00 0.00
9:53 am 09:53 Cloudy 36 2.2 33 0.6 89 89 WNW 3 6 30.07 1018 N/A 0.00 0.00
10:53 am 10:53 Cloudy 41 5 35 1.7 79 79 WNW 3 6 30.06 1018 10 16 0.00 0.00
11:53 am 11:53 Cloudy 45 7.2 36 2.2 71 71 WSW 8 13 30.02 1017 10 16 0.00 0.00
12:53 pm 12:53 Cloudy 45 7.2 36 2.2 71 71 WNW 7 11 29.98 1015 10 16 0.00 0.00
1:53 pm 13:53 Cloudy 46 7.8 36 2.2 68 68 NW 6 9 29.95 1014 10 16 0.00 0.00
2:53 pm 14:53 Cloudy 46 7.8 37 2.8 71 71 W 6 9 29.93 1014 10 16 0.00 0.00
3:33 pm 15:33 Cloudy 46 7.8 37 2.8 71 71 W 7 11 29.94 1014 10 16 0.00 0.00
3:53 pm 15:53 Cloudy 46 7.8 37 2.8 71 71 W 7 11 29.94 1014 10 16 0.00 0.00
4:53 pm 16:53 Partly Cloudy 44 6.7 36 2.2 73 73 SW 5 7 29.94 1014 10 16 0.00 0.00
5:53 pm 17:53 Clear 36 2.2 32 0 86 86 Calm 29.95 1014 10 16 0.00 0.00
6:53 pm 18:53 Clear 33 0.6 31 -0.6 92 92 W 3 6 29.97 1015 10 16 0.00 0.00
7:53 pm 19:53 Cloudy 31 -0.6 29 -1.7 92 92 Calm 29.99 1016 10 16 0.00 0.00
8:53 pm 20:53 Cloudy 39 3.9 34 1.1 82 82 W 5 7 30.00 1016 10 16 0.00 0.00
9:53 pm 21:53 Partly Cloudy 38 3.3 31 -0.6 76 76 WSW 6 9 30.01 1016 10 16 0.00 0.00
10:53 pm 22:53 Clear 33 0.6 29 -1.7 85 85 WNW 3 6 30.01 1016 10 16 0.00 0.00
11:53 pm 23:53 Cloudy 37 2.8 32 0 82 82 W 3 6 30.00 1016 10 16 0.00 0.00

Powered by AerisWeather